EW5206 Weather Reports


Display with metric or nautical units.
time (UTC)temp
F
wind
direction
speed
MPH
gust
MPH
rain 1hr
in
rain 24hr
in
rain mn
in
humidity
%
barometer
mb
20260906193037 73 0.0 0.0 0.00 0.03 0.03 85 1012.2
20260906191537 74 0.0 0.0 0.02 0.03 0.03 85 1012.6
20260906190036 74 0.0 0.0 0.03 0.03 0.03 86 1012.5
20260906184536 76 0.0 0.0 0.03 0.03 0.03 82 1012.4
20260906183036 79 0.0 0.0 0.03 0.03 0.03 79 1012.3
20260906181535 82 0.0 0.0 0.01 0.01 0.01 67 1012.1
20260906180041 83 0.0 0.0 0.00 0.00 0.00 60 1012.2
20260906174532 83 0.0 0.0 0.00 0.00 0.00 61 1012.1
20260906173029 82 0.0 0.0 0.00 0.00 0.00 64 1012.1
20260906171527 81 0.0 0.0 0.00 0.00 0.00 67 1012.4
20260906170025 80 0.0 0.0 0.00 0.00 0.00 66 1012.6
20260906164525 79 0.0 0.0 0.00 0.00 0.00 69 1013.0
20260906163026 79 0.0 0.0 0.00 0.00 0.00 71 1012.9
20260906161625 80 0.0 0.0 0.00 0.00 0.00 68 1012.8
20260906160024 81 0.0 0.0 0.00 0.00 0.00 68 1013.0
20260906154536 81 0.0 0.0 0.00 0.00 0.00 71 1013.2
20260906153020 80 0.0 0.0 0.00 0.00 0.00 71 1013.1
20260906151516 77 0.0 0.0 0.00 0.00 0.00 79 1013.2
20260906150012 75 0.0 0.0 0.00 0.00 0.00 80 1013.1
20260906144515 74 0.0 0.0 0.00 0.00 0.00 83 1013.3
20260906143005 72 0.0 0.0 0.00 0.00 0.00 84 1013.3
20260906141501 72 0.0 0.0 0.00 0.00 0.00 87 1013.2
20260906140100 71 0.0 0.0 0.00 0.00 0.00 88 1013.3
20260906134558 71 0.0 0.0 0.00 0.00 0.00 88 1013.4
20260906133055 70 0.0 0.0 0.00 0.00 0.00 89 1013.3
20260906131601 70 0.0 0.0 0.00 0.00 0.00 90 1013.4
20260906130057 70 0.0 0.0 0.00 0.00 0.00 90 1013.1
20260906124552 69 0.0 0.0 0.00 0.00 0.00 91 1013.1
20260906123058 69 0.0 0.0 0.00 0.00 0.00 92 1013.0
20260906121549 68 0.0 0.0 0.00 0.00 0.00 93 1012.8
20260906120059 67 0.0 0.0 0.00 0.00 0.00 93 1012.5
20260906114556 67 0.0 0.0 0.00 0.00 0.00 93 1012.1
20260906113044 67 0.0 0.0 0.00 0.00 0.00 92 1011.9
20260906111548 67 0.0 0.0 0.00 0.00 0.00 93 1011.8
20260906110040 67 0.0 0.0 0.00 0.00 0.00 93 1011.7
20260906104543 67 0.0 0.0 0.00 0.00 0.00 93 1011.4
20260906103047 67 0.0 0.0 0.00 0.00 0.00 93 1011.5
20260906101542 67 0.0 0.0 0.00 0.00 0.00 93 1011.6
20260906100041 66 0.0 0.0 0.00 0.00 0.00 92 1011.4
20260906094547 66 0.0 0.0 0.00 0.00 0.00 92 1011.5
20260906093040 66 0.0 0.0 0.00 0.00 0.00 92 1011.4
20260906091538 66 0.0 0.0 0.00 0.00 0.00 92 1011.3
20260906090035 67 0.0 0.0 0.00 0.00 0.00 91 1010.9
20260906084534 67 0.0 0.0 0.00 0.00 0.00 91 1011.1
20260906083032 67 0.0 0.0 0.00 0.00 0.00 90 1010.9
20260906081530 68 0.0 0.0 0.00 0.00 0.00 89 1010.7
20260906080028 68 0.0 0.0 0.00 0.00 0.00 90 1010.6
20260906074528 68 0.0 0.0 0.00 0.00 0.00 89 1010.7
20260906073027 68 0.0 0.0 0.00 0.00 0.00 89 1010.7
20260906071526 68 0.0 0.0 0.00 0.00 0.00 90 1010.8
20260906070025 68 0.0 0.0 0.00 0.00 0.00 90 1011.0
20260906064524 68 0.0 0.0 0.00 0.00 0.00 89 1011.2
20260906063030 68 0.0 0.0 0.00 0.00 0.00 90 1011.3
20260906061523 68 0.0 0.0 0.00 0.00 0.00 89 1011.3
20260906060022 69 0.0 0.0 0.00 0.00 0.00 88 1011.2
20260906054527 69 0.0 0.0 0.00 0.00 0.00 87 1011.2
20260906053019 69 0.0 0.0 0.00 0.00 0.00 87 1011.3
20260906051519 70 0.0 0.0 0.00 0.00 0.00 86 1011.2
20260906050019 70 0.0 0.0 0.00 0.00 0.00 85 1011.2
20260906044512 71 0.0 0.0 0.00 0.00 0.00 85 1011.1
20260906043011 71 0.0 0.0 0.00 0.00 0.00 84 1011.4
20260906041509 71 0.0 0.0 0.00 0.00 0.00 83 1011.5
20260906040007 71 0.0 0.0 0.00 0.00 0.00 83 1011.5
20260906034506 71 0.0 0.0 0.00 0.00 0.00 83 1011.3
20260906033006 71 0.0 0.0 0.00 0.00 0.00 83 1011.7
20260906031513 71 0.0 0.0 0.00 0.00 0.00 82 1011.9
20260906030009 71 0.0 0.0 0.00 0.00 0.00 81 1011.9
20260906024511 72 0.0 0.0 0.00 0.00 0.00 79 1011.8
20260906023003 72 0.0 0.0 0.00 0.00 0.00 79 1011.9
20260906021503 73 0.0 0.0 0.00 0.00 0.00 77 1011.9
20260906020002 73 0.0 0.0 0.00 0.00 0.00 76 1011.7
20260906014503 74 0.0 0.0 0.00 0.00 0.00 76 1011.6
20260906013001 74 0.0 0.0 0.00 0.00 0.00 75 1011.4
20260906011502 75 0.0 0.0 0.00 0.00 0.00 74 1011.3
20260906010100 75 0.0 0.0 0.00 0.00 0.00 73 1011.1
20260906004603 76 0.0 0.0 0.00 0.00 0.00 71 1011.0
20260906003059 76 0.0 0.0 0.00 0.00 0.00 70 1010.9
20260906001559 77 0.0 0.0 0.00 0.00 0.00 69 1010.8
20260906000106 77 0.0 0.0 0.00 0.00 0.00 68 1010.6
20260905234605 78 0.0 0.0 0.00 0.00 0.00 65 1010.6
20260905233058 79 0.0 0.0 0.00 0.00 0.00 64 1010.4
20260905231557 80 0.0 0.0 0.00 0.00 0.00 62 1010.4
20260905230057 80 0.0 0.0 0.00 0.00 0.00 61 1010.6
20260905224555 81 0.0 0.0 0.00 0.00 0.00 60 1010.6
20260905223054 81 0.0 0.0 0.00 0.00 0.00 60 1010.5
20260905221554 82 0.0 0.0 0.00 0.00 0.00 59 1010.4
20260905220053 82 0.0 0.0 0.00 0.00 0.00 59 1010.3
20260905214553 82 0.0 0.0 0.00 0.00 0.00 60 1010.0
20260905213059 83 0.0 0.0 0.00 0.00 0.00 59 1009.9
20260905211606 83 0.0 0.0 0.00 0.00 0.00 58 1009.8
20260905204554 83 0.0 0.0 0.00 0.00 0.00 57 1009.8
20260905203051 83 0.0 0.0 0.00 0.00 0.00 56 1009.7
20260905201556 83 0.0 0.0 0.00 0.00 0.00 55 1009.7
20260905194549 83 0.0 0.0 0.00 0.00 0.00 56 1009.5